Location: Clegg Observatory
(38.9178°N, 78.6069°W)
Time: 17:15:19
(UTC-05:00)

Daily predictions for brighter satellites

Satellite Brightness Start Highest point End
(mag) Time Altitude Azimuth Time Altitude Azimuth Time Altitude Azimuth
USA 234 3.4 17:10:35 10° NE 17:17:06 65° SE 17:23:33 10° SW
Cosmos 2082 Rocket 2.7 17:12:13 10° N 17:17:25 36° ENE 17:22:38 10° SE
YAOGAN 1 3.1 17:14:48 10° SE 17:18:46 37° ENE 17:22:46 10° N
CRYOSAT 2 4.4 17:14:23 10° N 17:19:18 73° E 17:24:10 10° S
PAYLOAD A 3.9 17:15:19 10° SSE 17:20:08 72° ENE 17:25:11 10° N
Cosmos 1500 3.5 17:21:27 10° N 17:25:09 44° E 17:28:51 10° SSE
CZ-2C R/B 2.6 17:21:18 10° SSE 17:26:12 55° ENE 17:31:14 10° N
Cosmos 1743 3.9 17:24:30 10° NNE 17:27:35 22° ENE 17:30:39 10° SE
IRS-1A Rocket 4.5 17:22:13 10° S 17:27:42 78° WSW 17:33:15 10° NNW
Nadezhda 3 Rocket 4.3 17:22:59 10° SSE 17:28:49 45° E 17:34:44 10° NNE
NOSS 3-4 (A) 4.5 17:23:45 10° NNW 17:29:55 32° NE 17:36:22 10° ESE
NOSS 3-4 (C) 4.5 17:23:51 10° NNW 17:30:01 32° NE 17:36:27 10° ESE
Cosmos 1455 Rocket 3.6 17:31:55 10° NNW 17:36:18 66° W 17:40:42 10° S
Delta 2 Rocket 3.6 17:37:31 10° WSW 17:40:57 50° S 17:44:44 10° E
SKYMED 2 4.4 17:40:35 10° NE 17:44:25 30° E 17:48:13 10° SSE
Cosmos 2056 Rocket 4.3 17:39:58 10° SSE 17:44:39 31° E 17:49:18 10° NE
Cosmos 1484 Rocket 3.5 17:41:35 10° SE 17:44:47 28° ENE 17:47:59 10° NNE
ATLAS 2AS CENTAUR R/B 4.2 17:37:22 10° NW 17:44:53 46° WSW 17:51:52 10° S
SJ-7 4.4 17:44:36 10° SSE 17:48:50 79° ENE 17:53:06 10° N
Cosmos 1809 Rocket 4.4 17:44:11 10° N 17:50:20 75° E 17:56:25 10° SSE
SMAP 3.1 17:46:12 10° SSE 17:50:51 87° W 17:55:31 10° NNW
Cosmos 2369 Rocket 3.8 17:51:46 10° SE 17:54:27 14° E 17:54:58 13° E
CORIOLIS 4.1 17:49:28 10° SSE 17:54:53 87° ENE 18:00:17 10° NNW
Cosmos 1624 Rocket 4.3 17:52:31 10° S 17:57:25 44° ESE 18:02:04 11° NNE
Cosmos 1975 3.7 17:53:33 10° NNW 17:57:31 53° W 18:01:25 10° S
SL-24 DEB 4.2 17:52:59 10° N 17:57:43 81° E 18:02:23 10° S
Meteor 1-13 Rocket 4.2 17:56:30 10° S 18:02:11 83° E 18:08:04 10° N
Meteor 2-4 Rocket 3.8 17:57:39 10° SSE 18:02:45 46° E 18:07:50 10° NNE
Okean 1-7 Rocket 3.5 17:58:42 10° S 18:03:11 75° E 18:07:39 10° N
Cosmos 1371 Rocket 4.1 17:58:04 10° S 18:03:22 64° ESE 18:08:41 10° NNE
Cosmos 1726 Rocket 4.5 18:00:44 10° NNE 18:04:30 26° ENE 18:08:15 10° SE
CZ-4 R/B 4.5 18:01:18 10° SSE 18:05:26 86° WSW 18:09:38 10° NNW
CZ-4 R/B 3.0 18:02:57 10° SSW 18:06:51 39° W 18:10:45 10° NNW
Tiangong 1 1.8 18:05:31 10° WNW 18:08:24 38° N 18:09:19 29° NE
SPOT 3 Rocket 4.3 18:06:09 10° S 18:11:14 56° W 18:16:19 10° NNW
MSX 3.8 18:05:52 10° SSE 18:11:37 88° WSW 18:17:24 10° NNW
Cosmos 1934 Rocket 4.2 18:07:03 10° N 18:13:05 49° E 18:19:09 10° SSE
COSMOS 2487 4.5 18:10:07 10° NW 18:13:22 32° WSW 18:16:35 10° SSW
NOSS 7 (H) 4.5 18:11:51 10° SSW 18:15:10 55° ESE 18:16:13 36° ENE
Cosmos 1340 3.8 18:16:29 10° SSE 18:18:56 25° ESE 18:18:56 25° ESE
Cosmos 1535 Rocket 4.4 18:17:04 10° N 18:23:22 76° E 18:29:32 10° SSE
Cosmos 1606 Rocket 3.7 18:19:46 10° N 18:24:09 51° E 18:28:30 10° SSE
METEOR-M 4.5 18:21:53 10° SE 18:26:48 39° ENE 18:31:44 10° N
COSMO-SKYMED 1 2.7 18:28:13 10° N 18:32:34 76° WNW 18:36:54 10° SSW
Cosmos 1452 Rocket 4.0 18:28:47 10° SSE 18:33:31 35° E 18:33:52 35° E
Cosmos 2239 Rocket 4.5 18:28:58 10° N 18:35:11 85° W 18:41:19 10° S
Cosmos 1190 Rocket 3.9 18:30:16 10° NNW 18:35:28 61° ENE 18:40:36 10° SSE
GEOS 3 Rocket 4.2 18:36:10 34° NE 18:36:19 34° NE 18:40:53 10° NNW
Cosmos 1025 Rocket 3.3 18:33:46 10° SSW 18:38:07 69° W 18:42:27 10° N
Cosmos 1666 2.6 18:35:32 10° N 18:39:25 87° W 18:43:18 10° S
Abrixas 4.3 18:37:34 10° WNW 18:40:12 29° SW 18:41:15 23° S
Cosmos 1821 Rocket 4.2 18:41:43 10° NNW 18:47:46 71° W 18:53:49 10° S
Cosmos 1833 Rocket 3.9 18:46:46 10° NW 18:52:04 43° WSW 18:57:19 10° S
Cosmos 1605 Rocket 3.8 18:52:19 10° N 18:58:37 79° E 19:04:47 10° S
USA 234 4.2 18:56:14 22° NNE 18:59:51 40° NNW 19:05:50 10° W
CZ-3B DEB 4.2 18:55:13 10° WNW 19:00:13 30° N 19:04:32 23° NE
Cosmos 2082 Rocket 4.1 18:56:29 10° NW 19:01:22 30° WSW 19:06:14 10° SSW
Meteor 1-28 Rocket 4.2 19:06:27 40° NW 19:07:05 44° WNW 19:10:41 10° SSW
BREEZE M DEB (TANK) 3.8 19:08:21 10° W 19:13:17 29° NW 19:13:17 29° NW
NOSS 3-4 (A) 4.3 19:14:16 10° NW 19:21:15 60° WSW 19:28:36 10° SSE
NOSS 3-4 (C) 4.3 19:14:22 10° NW 19:21:21 61° WSW 19:28:43 10° SSE
Cosmos 407 Rocket 4.1 19:20:35 10° NNW 19:25:35 54° WSW 19:30:37 10° S
BREEZE M DEB (TANK) 4.0 19:26:04 10° NW 19:30:50 85° NE 19:34:19 47° ESE
Cosmos 1727 Rocket 4.3 19:29:27 10° SSW 19:35:35 61° W 19:38:31 31° NNW
Cosmos 2369 Rocket 2.5 19:32:04 10° SSW 19:36:49 61° SW 19:36:49 61° SW
FALCON 9 R/B 3.1 19:31:44 10° W 19:48:42 63° SSW 19:49:06 62° S
ATLAS 3B CENTAUR R/B 4.2 19:43:52 10° W 19:58:16 36° SSW 20:00:27 31° S
